McAllen, TX

10:12 AM CDT on September 23, 2017 (GMT -0500)
McAllen Miller International

Weather History for KMFE - February, 2014

Change the Weather History Date:

Thursday, February 27, 2014

  Actual Average Record
Temperature  
Mean Temperature 52 °F 67 °F  
Max Temperature 61 °F 78 °F 101 °F (2009)
Min Temperature 42 °F 57 °F 41 °F (2002)
Degree Days  
Heating Degree Days 13 2  
Month to date heating degree days 175 104  
Since 1 July heating degree days 776 531  
Cooling Degree Days 0 4  
Month to date cooling degree days 109 90  
Year to date cooling degree days 125 152  
Growing Degree Days 2 (Base 50)    
Moisture  
Dew Point 40 °F    
Average Humidity 67    
Maximum Humidity 89    
Minimum Humidity 44    
Precipitation  
Precipitation 0.02 in 0.03 in 0.39 in (1985)
Month to date precipitation 0.22 1.07  
Year to date precipitation 0.88 2.12  
Sea Level Pressure  
Sea Level Pressure 30.13 in    
Wind  
Wind Speed 6 mph (NNE)    
Max Wind Speed 16 mph    
Max Gust Speed 20 mph    
Visibility 10 miles    
Events Rain    
T = Trace of Precipitation, MM = Missing Value Source: NWS Daily Summary

Daily Weather History Graph

Daily Weather History Graph

Search for Another Location

Airport or City:

Trip Planner

Search our weather history database for the weather conditions in past years. The results will help you decide how hot, cold, wet, or windy it might be!

Date:

Astronomy

Feb. 27, 2014 Rise Set
Actual Time 6:58 AM CST 6:33 PM CST
Civil Twilight 6:35 AM CST 6:56 PM CST
Nautical Twilight 6:08 AM CST 7:23 PM CST
Astronomical Twilight 5:41 AM CST 7:50 PM CST
Moon 5:24 AM CST (2/27) 5:05 PM CST (2/27)
Length of Visible Light 12h 21m
Length of Day
11h 35m
Waning Crescent, 4% of the Moon is Illuminated
Feb 27
Waning Crescent
Mar 1
New
Mar 8
First Quarter
Mar 16
Full
Mar 23
Last Quarter

Hourly Weather History & Observations

Time (CST) Temp. Windchill Dew Point Humidity Pressure Visibility Wind Dir Wind Speed Gust Speed Precip Events Conditions
12:00 AM 44.6 °F 39.7 °F 41.0 °F 87% 30.19 in 10.0 mi North 9.2 mph - 0.00 in Rain Light Rain
12:53 AM 45.0 °F 38.5 °F 42.1 °F 90% 30.19 in 8.0 mi North 13.8 mph - 0.00 in Rain Light Rain
1:03 AM 44.6 °F 38.1 °F 41.0 °F 87% 30.19 in 9.0 mi North 13.8 mph - 0.00 in Rain Light Rain
1:18 AM 44.6 °F 38.4 °F 39.2 °F 81% 30.18 in 10.0 mi North 12.7 mph - 0.00 in Rain Light Rain
1:53 AM 43.0 °F 36.4 °F 39.0 °F 86% 30.16 in 10.0 mi North 12.7 mph - 0.00 in Rain Light Rain
2:00 AM 42.8 °F 36.6 °F 39.2 °F 87% 30.15 in 10.0 mi North 11.5 mph - 0.00 in Rain Light Rain
2:17 AM 42.8 °F 37.5 °F 39.2 °F 87% 30.16 in 7.0 mi North 9.2 mph - 0.01 in Rain Light Rain
2:27 AM 42.8 °F 36.2 °F 39.2 °F 87% 30.16 in 7.0 mi North 12.7 mph - 0.02 in Rain Light Rain
2:53 AM 43.0 °F 37.7 °F 39.9 °F 89% 30.14 in 9.0 mi North 9.2 mph - 0.02 in Rain Light Rain
3:06 AM 42.8 °F 39.3 °F 39.2 °F 87% 30.15 in 10.0 mi North 5.8 mph - 0.00 in   Overcast
3:41 AM 42.8 °F 39.3 °F 39.2 °F 87% 30.15 in 10.0 mi North 5.8 mph - 0.00 in   Overcast
3:53 AM 43.0 °F 39.5 °F 39.9 °F 89% 30.15 in 10.0 mi NNE 5.8 mph - 0.00 in   Overcast
4:04 AM 42.8 °F 38.6 °F 39.2 °F 87% 30.15 in 10.0 mi North 6.9 mph - N/A   Overcast
4:34 AM 42.8 °F 40.1 °F 39.2 °F 87% 30.16 in 10.0 mi NNE 4.6 mph - N/A   Overcast
4:53 AM 43.0 °F 38.8 °F 39.0 °F 86% 30.16 in 10.0 mi North 6.9 mph - N/A   Overcast
5:26 AM 42.8 °F 38.0 °F 39.2 °F 87% 30.17 in 10.0 mi North 8.1 mph - N/A   Overcast
5:49 AM 42.8 °F 37.5 °F 39.2 °F 87% 30.18 in 10.0 mi North 9.2 mph - N/A   Overcast
5:53 AM 43.0 °F 37.7 °F 39.0 °F 86% 30.17 in 10.0 mi North 9.2 mph - N/A   Overcast
6:04 AM 42.8 °F 38.0 °F 37.4 °F 81% 30.18 in 10.0 mi North 8.1 mph - N/A   Overcast
6:53 AM 42.1 °F 36.6 °F 36.0 °F 79% 30.19 in 10.0 mi North 9.2 mph - N/A   Overcast
7:53 AM 43.0 °F 37.7 °F 34.0 °F 71% 30.20 in 10.0 mi NNE 9.2 mph - N/A   Overcast
8:53 AM 45.0 °F 40.6 °F 35.1 °F 68% 30.21 in 10.0 mi NNE 8.1 mph - N/A   Overcast
9:53 AM 48.0 °F - 34.0 °F 58% 30.22 in 10.0 mi NNE 4.6 mph - N/A   Overcast
10:53 AM 51.1 °F - 37.0 °F 59% 30.21 in 10.0 mi NNE 4.6 mph - N/A   Overcast
11:53 AM 53.1 °F - 36.0 °F 52% 30.18 in 10.0 mi Calm Calm - N/A   Overcast
12:53 PM 55.0 °F - 37.9 °F 53% 30.14 in 10.0 mi Calm Calm - N/A   Overcast
1:53 PM 59.0 °F - 37.9 °F 46% 30.09 in 10.0 mi Calm Calm - N/A   Overcast
2:53 PM 61.0 °F - 41.0 °F 48% 30.05 in 10.0 mi Variable 3.5 mph - N/A   Overcast
3:53 PM 60.1 °F - 41.0 °F 49% 30.03 in 10.0 mi Calm Calm - N/A   Overcast
4:53 PM 60.1 °F - 42.1 °F 51% 30.01 in 10.0 mi East 3.5 mph - N/A   Overcast
5:53 PM 57.9 °F - 43.0 °F 58% 30.01 in 10.0 mi SE 3.5 mph - N/A   Overcast
6:53 PM 57.0 °F - 42.1 °F 57% 30.01 in 10.0 mi Calm Calm - N/A   Mostly Cloudy
7:53 PM 57.0 °F - 43.0 °F 59% 30.01 in 10.0 mi East 4.6 mph - N/A   Clear
8:53 PM 54.0 °F - 45.0 °F 72% 30.02 in 10.0 mi ESE 10.4 mph - N/A   Mostly Cloudy
9:53 PM 51.1 °F - 46.0 °F 83% 30.02 in 10.0 mi ESE 5.8 mph - N/A   Clear
10:53 PM 50.0 °F - 46.0 °F 86% 30.01 in 10.0 mi SE 6.9 mph - N/A   Clear
11:53 PM 50.0 °F - 46.9 °F 89% 29.98 in 10.0 mi SE 5.8 mph - N/A   Mostly Cloudy